Location: Newark
(25.6108°S, 54.5803°W)
Time: 04:01:42
(UTC+00:00)

deb Explorer IX - Pass Details

Date: 30 October 2020
Orbit: 538 x 1104 km, 38.8° (Epoch: 29 November)

Event Time Altitude Azimuth Distance (km) Brightness Sun altitude
Rises 02:15:37 0° 240° (WSW) 2,757 - -47.3°
Reaches altitude 10° 02:17:55 10° 241° (WSW) 1,825 - -47.5°
Maximum altitude 02:22:01 77° 326° (NW) 557 - -47.9°
Drops below altitude 10° 02:26:06 10° 53° (NE) 1,813 - -48.2°
Sets 02:28:23 0° 54° (NE) 2,737 - -48.4°
